Temperature
15 15 15 16 13 12 14 15 15 16 17 18 19 19 18 17 18 19 19 19 19 18 18 17 17 17 17 17 17 17 17 17 17 17 17 17 17 16 16 16 16 16 15 15 15 15 15 15 15
14 15 15 15 12 13 14 14 15 16 18 18 18 18 18 18 18 19 18 18 18 18 18 17 17 17 17 17 17 17 17 17 17 17 17 17 16 16 16 16 15 15 15 15 15 15 15 15 15
14 14 15 12 12 13 16 16 15 16 18 18 18 18 18 18 18 18 18 18 18 18 17 17 17 17 17 17 17 17 17 17 17 17 16 16 16 16 16 15 15 15 15 15 15 15 15 15 15
14 14 14 12 13 13 15 16 15 16 18 18 18 17 17 18 18 18 18 18 18 18 17 17 17 16 16 16 17 17 17 17 17 16 16 16 16 16 15 15 15 15 15 15 15 15 15 15 15
14 14 12 12 13 13 13 15 16 16 16 17 17 16 17 18 18 18 18 18 18 17 17 17 16 16 16 16 16 16 16 16 16 16 16 16 16 15 15 15 15 15 15 15 14 14 14 14 14
13 11 11 12 13 14 14 16 16 16 16 17 17 16 17 18 18 18 18 18 17 17 17 16 16 16 16 16 16 16 16 16 16 16 16 16 16 15 15 15 15 15 15 15 14 14 14 14 14
12 11 11 12 13 14 15 16 16 15 15 17 17 16 16 17 17 17 17 17 17 17 16 16 16 16 16 16 16 16 16 16 16 16 16 15 15 15 15 15 15 15 15 14 14 14 14 14 14
13 11 12 12 13 14 16 17 17 17 16 18 18 16 16 17 17 17 17 16 16 16 16 16 16 16 16 16 16 16 16 16 16 15 15 15 15 15 15 15 15 14 14 14 14 14 14 14 14
13 11 11 12 13 14 15 16 17 17 17 17 17 17 18 17 17 16 16 16 16 16 16 16 15 15 15 15 15 15 15 15 15 15 15 15 15 15 15 14 14 14 14 14 14 14 14 14 13
12 11 12 13 14 14 15 15 16 16 15 16 16 17 17 17 16 16 16 16 16 16 16 15 15 15 15 15 15 15 15 15 15 15 15 15 15 15 14 14 14 14 14 14 14 14 13 13 13
11 11 12 13 14 15 15 15 16 15 15 16 17 17 17 16 16 16 16 16 16 16 16 16 15 15 15 15 15 15 15 15 15 15 15 14 14 14 14 14 14 14 14 14 13 13 13 13 13
10 11 12 13 14 15 15 15 15 15 16 17 18 18 17 16 16 16 16 16 16 16 16 16 15 15 15 15 15 15 15 15 14 14 14 14 14 14 14 14 14 14 14 13 13 13 13 13 13
11 11 12 13 14 14 14 14 14 15 16 17 17 17 17 16 16 16 15 15 16 16 16 16 15 15 15 15 15 15 15 15 14 14 14 14 14 14 14 14 13 13 13 13 13 13 13 13 13
11 11 12 12 13 13 13 13 14 15 16 16 16 16 16 16 16 15 15 15 15 16 16 15 15 15 15 15 15 15 15 15 14 14 14 14 14 14 14 13 13 13 13 13 13 13 13 13 12
11 11 11 11 12 12 13 13 12 15 15 15 15 15 15 15 15 16 16 16 16 16 16 15 15 15 15 15 14 14 14 14 14 14 14 14 14 13 13 13 13 13 13 13 12 12 12 12 12
10 10 10 11 11 12 12 12 12 14 14 13 14 14 14 15 15 16 16 16 16 15 15 15 15 15 15 14 14 14 14 14 14 14 14 14 13 13 13 13 13 13 12 12 12 12 12 12 12
9 9 9 10 11 11 11 11 12 13 13 12 13 14 14 14 15 15 15 15 15 15 15 15 15 15 15 15 14 14 14 14 14 14 14 13 13 13 13 13 13 12 12 12 12 12 12 11 11
8 8 9 9 10 10 10 10 11 12 12 12 12 13 13 14 15 15 15 15 15 15 15 15 15 15 15 14 14 14 14 13 13 13 13 13 13 13 13 12 12 12 12 12 11 11 11 11 11
8 8 9 9 10 10 9 10 10 11 10 10 11 12 13 14 14 14 14 14 14 14 15 15 15 14 14 14 14 14 13 13 13 13 13 13 13 12 12 12 12 12 12 11 11 11 11 11 10
8 8 8 9 10 10 9 9 10 9 10 11 11 12 13 13 14 14 14 14 14 14 14 14 14 14 14 14 14 14 13 13 13 13 13 12 12 12 12 12 12 12 11 11 11 11 10 10 10
8 8 8 8 9 9 9 9 9 9 10 11 11 12 13 13 13 14 14 14 14 14 14 14 14 14 14 14 13 13 13 13 12 12 12 12 12 12 12 12 11 11 11 11 11 10 10 10 10
8 8 9 9 8 8 9 8 9 9 9 9 10 11 12 13 13 14 14 14 14 14 14 14 14 14 13 13 13 13 13 13 13 12 12 12 12 11 11 11 11 11 11 11 10 10 10 10 9
8 8 8 8 8 7 8 8 8 8 9 9 9 10 12 13 13 13 14 14 14 14 14 13 13 13 13 13 13 13 12 12 12 12 12 12 11 11 11 11 11 11 10 10 10 10 10 9 9
8 8 7 7 7 7 7 7 8 7 9 9 9 10 11 12 12 13 13 13 13 13 13 13 13 13 12 12 12 12 12 12 12 12 11 11 11 11 11 11 10 10 10 10 10 9 9 9 9
7 7 7 7 7 7 7 7 8 8 8 9 9 10 10 11 12 12 12 12 12 12 12 12 12 12 12 12 12 11 11 11 11 11 11 11 11 11 10 10 10 10 10 9 9 9 9 9 8
7 7 7 7 7 6 6 7 7 8 8 9 9 9 10 10 11 11 12 12 12 12 12 12 12 12 12 11 11 11 11 11 11 10 10 10 10 10 10 10 10 9 9 9 9 9 8 8 8
6 6 7 6 6 6 6 6 7 8 7 7 7 8 8 9 10 11 11 11 11 11 12 12 11 11 11 11 11 11 10 10 10 10 10 10 10 10 10 9 9 9 9 9 8 8 8 8 7
7 6 6 6 6 7 7 6 7 8 7 6 6 6 7 8 9 10 10 10 11 11 11 11 11 11 11 11 10 10 10 10 10 10 9 9 9 9 9 9 9 8 8 8 8 8 7 7 7
6 6 6 5 6 6 7 7 7 7 6 6 5 6 7 7 8 9 9 9 10 10 10 10 10 10 10 10 10 10 9 9 9 9 9 9 9 9 9 8 8 8 8 7 7 7 7 6 6
6 5 5 6 5 5 5 6 7 5 5 5 5 6 6 7 7 8 8 8 9 9 9 10 9 9 9 9 9 9 9 9 9 9 9 9 8 8 8 8 8 7 7 7 7 6 6 6 6
Wind_Speed
3 2 3 4 5 3 5 6 4 3 3 2 2 5 7 6 5 4 1 7 9 10 12 15 16 16 16 16 16 16 16 15 15 15 14 14 13 12 12 12 12 12 12 12 12 12 13 13 13
1 1 4 4 4 3 7 6 6 6 3 3 2 3 4 2 1 4 4 6 10 11 12 14 17 16 16 16 16 16 15 15 15 14 14 13 13 13 12 12 12 12 12 11 12 12 12 12 12
1 2 4 4 5 8 6 5 6 3 2 2 2 2 3 2 3 5 4 9 10 10 11 14 17 16 16 16 16 15 15 15 14 14 13 13 12 12 12 12 12 12 11 11 11 11 11 10 10
3 4 4 3 7 7 6 3 3 1 0 2 4 2 0 1 3 4 8 11 11 9 11 14 17 16 16 16 16 15 15 14 13 13 12 12 12 12 12 11 11 11 11 11 11 11 10 9 10
3 4 3 3 7 6 5 4 3 2 2 2 4 3 0 4 3 8 11 11 11 9 10 13 16 16 16 15 15 15 14 13 13 12 11 11 11 11 11 11 11 11 10 10 10 9 9 10 10
3 3 4 6 7 5 5 4 3 2 2 3 5 4 1 2 5 8 10 9 9 9 9 12 15 15 15 15 14 14 13 13 12 11 11 10 10 10 10 10 10 10 10 10 9 9 9 9 9
4 4 6 6 5 5 4 4 5 4 3 4 5 5 1 1 4 8 9 8 8 8 8 8 11 13 14 14 14 13 13 12 12 11 10 10 10 10 9 9 8 8 8 8 8 8 9 9 9
4 4 5 6 6 6 3 3 3 5 4 3 5 7 5 5 7 9 9 8 7 6 6 7 9 10 11 11 13 13 12 12 11 11 10 10 9 9 8 8 8 7 7 7 7 8 8 9 9
3 3 7 8 8 5 3 2 0 1 4 2 1 3 3 10 11 11 8 7 7 6 5 6 7 8 9 10 10 11 11 11 11 10 10 9 8 7 7 7 7 6 6 6 7 7 8 8 8
4 7 9 6 5 4 2 3 3 3 2 2 1 2 6 10 12 13 12 12 11 9 7 6 6 6 7 8 8 8 8 9 9 9 9 9 8 7 6 6 6 6 6 6 6 7 7 7 7
6 7 5 4 3 2 1 1 2 6 4 6 6 7 10 10 11 12 11 11 10 9 7 6 6 6 6 5 6 6 7 7 7 8 9 9 8 6 6 5 5 5 6 5 5 6 6 6 6
5 5 4 3 2 1 2 2 2 5 6 4 6 11 12 13 13 13 12 10 8 9 8 7 7 6 6 6 5 5 5 5 5 7 8 8 5 4 4 4 4 5 4 5 5 5 5 6 5
6 4 3 4 4 3 2 3 3 5 4 1 5 9 11 12 10 8 8 8 8 8 8 7 7 7 6 5 4 5 4 5 6 6 7 8 5 3 4 3 4 4 4 4 4 4 4 4 4
5 4 4 3 4 3 4 5 3 6 2 4 7 9 10 10 10 8 8 8 8 8 8 7 7 7 7 6 5 4 5 6 6 6 6 8 7 5 4 3 3 3 3 4 4 4 3 3 3
2 2 4 5 4 3 1 6 8 5 4 5 7 7 7 7 7 9 10 9 9 8 7 7 7 7 6 6 6 5 5 6 5 5 7 7 7 6 5 3 2 2 4 4 4 4 4 3 3
3 4 7 5 5 4 4 10 6 4 6 6 6 6 6 6 7 7 7 7 7 7 7 7 7 7 7 6 5 4 5 5 5 6 6 7 7 7 6 3 2 4 4 4 3 2 2 2 2
4 6 8 5 5 4 7 8 5 4 6 7 7 6 6 5 5 5 6 6 7 8 8 7 7 7 7 6 5 4 5 4 4 5 6 6 7 8 6 3 3 5 4 3 2 2 2 2 1
7 6 6 7 4 5 7 9 6 3 6 7 7 6 6 7 8 6 6 6 6 6 6 6 6 6 6 5 4 3 3 3 3 4 5 6 7 7 6 4 4 5 3 2 2 3 2 2 1
5 5 5 5 4 5 9 11 9 5 5 7 7 7 7 8 5 4 5 5 5 5 6 7 7 6 6 5 5 4 4 3 2 2 4 6 7 7 6 4 3 4 3 3 3 3 3 2 1
6 6 5 3 2 5 6 11 9 8 8 8 9 10 9 7 4 4 5 5 6 7 7 7 7 7 7 6 5 4 4 3 2 2 3 5 6 6 6 5 4 4 3 3 3 3 2 1 2
7 8 7 5 2 1 2 7 7 6 6 6 7 8 8 9 9 7 6 6 6 7 8 8 8 7 7 6 5 4 3 3 2 2 2 2 5 6 6 6 5 4 4 4 4 4 4 3 1
8 7 6 5 2 3 3 5 7 5 6 7 8 7 8 8 7 7 7 7 7 7 6 6 7 7 7 7 7 7 5 4 4 3 3 2 3 4 5 5 5 5 4 4 4 4 3 4 2
5 4 5 4 4 3 3 4 8 3 6 8 9 8 8 7 8 8 8 8 6 6 6 5 6 6 6 6 8 7 5 4 3 2 3 2 2 3 4 5 5 4 4 4 4 3 3 3 3
4 4 2 1 2 5 7 7 7 6 9 7 7 7 8 7 6 6 5 5 4 4 4 5 6 5 5 6 6 7 7 6 5 4 4 3 2 2 2 4 4 4 4 4 4 4 4 3 3
5 5 3 3 4 7 6 6 9 7 7 8 8 7 6 6 6 5 5 5 4 4 5 5 6 5 5 6 6 6 7 7 7 6 6 4 3 2 3 3 4 4 4 4 4 4 4 4 4
7 8 7 6 6 3 4 8 8 5 4 4 4 4 4 5 5 6 6 6 5 5 5 5 5 5 5 5 5 5 5 5 4 5 5 5 4 4 4 4 3 3 4 4 4 3 3 3 3
7 6 4 4 1 2 5 6 8 2 2 2 1 1 3 4 5 5 4 4 5 5 5 6 6 5 4 5 5 4 4 4 4 4 3 3 3 3 4 4 4 3 3 4 4 3 3 3 3
5 6 4 5 4 4 4 4 4 4 3 3 2 2 3 2 2 2 3 3 3 3 3 3 4 5 4 4 4 4 3 4 4 4 4 3 3 3 4 4 3 3 3 3 4 3 2 3 2
4 4 4 4 4 4 3 5 3 4 4 4 3 2 2 1 2 2 2 1 2 3 3 4 3 4 3 3 3 4 3 3 3 3 4 4 3 3 4 4 4 3 3 3 3 3 3 3 2
3 5 5 5 4 3 3 4 4 3 2 1 1 2 1 2 2 2 2 3 3 3 3 3 3 3 3 3 3 3 3 3 3 3 3 3 3 3 4 4 4 3 3 3 3 3 2 3 2
Wind_Direction
345 36 75 62 63 64 234 236 218 232 216 210 165 153 158 163 169 186 113 140 137 143 152 151 146 143 139 135 129 127 123 121 119 116 113 111 108 107 107 105 101 97 93 88 87 86 87 88 88
49 86 62 70 115 197 250 229 215 216 193 133 91 105 126 180 175 126 141 155 140 142 146 147 145 143 140 137 133 130 127 123 120 118 115 113 111 109 106 106 103 98 93 89 87 86 85 86 86
127 64 95 101 165 199 225 216 212 237 217 159 112 83 148 173 165 168 170 146 133 134 141 147 145 145 141 139 137 132 129 125 123 120 117 115 113 110 107 105 103 100 95 92 90 88 87 85 85
106 65 68 127 220 225 223 232 182 184 173 133 134 107 286 8 192 170 139 137 133 132 137 147 147 146 143 141 139 135 131 128 125 123 120 118 116 114 112 107 103 101 99 96 93 89 88 87 88
74 100 124 223 238 245 241 240 201 184 173 150 143 144 14 352 86 126 134 138 139 136 137 148 147 146 144 142 140 137 133 131 129 126 124 122 120 116 113 110 106 104 102 98 96 92 88 86 88
90 102 160 221 238 252 248 221 186 188 172 148 143 140 209 21 119 134 136 136 139 138 134 146 147 144 145 144 141 139 137 135 133 131 128 124 121 118 114 112 110 107 103 99 95 92 90 89 88
145 148 196 210 227 244 232 185 171 181 191 196 163 139 236 159 146 133 127 126 127 128 127 133 140 142 144 144 143 142 140 138 136 133 130 126 122 120 118 114 111 109 107 104 98 93 88 89 86
156 148 196 212 208 234 217 171 172 174 201 174 148 153 196 189 141 122 118 122 126 125 127 126 127 132 135 140 144 144 143 141 138 135 131 127 124 120 118 115 113 112 109 106 100 95 89 83 79
127 160 213 209 198 226 202 167 218 154 134 129 177 186 195 138 134 129 130 134 145 144 138 133 128 129 132 136 142 143 143 143 140 136 131 125 118 115 115 114 115 114 115 110 100 94 89 79 71
160 205 219 209 201 207 198 181 175 122 136 158 83 52 115 137 148 152 158 163 168 170 164 150 143 136 134 139 136 135 137 138 136 133 131 124 118 116 115 114 115 110 106 104 97 92 86 77 67
186 214 219 228 233 218 202 208 174 150 198 203 186 166 150 156 162 167 171 172 174 173 169 164 156 145 140 134 133 131 131 132 133 136 135 129 119 112 108 106 103 101 100 91 85 80 76 76 72
200 234 226 246 264 229 205 194 184 196 219 217 182 165 163 170 176 178 176 175 170 170 176 169 162 154 150 145 140 138 132 133 134 141 144 136 122 113 109 104 104 100 99 91 85 80 76 73 68
222 238 241 252 274 267 244 232 227 239 262 170 135 153 168 177 180 176 169 166 166 174 179 176 170 166 158 149 150 145 143 144 147 146 151 149 137 132 121 111 109 104 103 101 91 84 77 68 57
210 223 257 274 262 270 249 260 233 247 199 147 156 175 182 184 180 171 171 175 180 182 182 176 173 173 162 163 162 157 151 149 145 148 156 157 148 140 130 116 110 109 116 118 111 99 88 76 67
169 215 282 262 237 251 217 268 234 232 162 173 187 191 191 193 184 187 187 184 184 182 180 179 178 171 167 168 166 156 153 150 147 152 158 159 156 150 141 132 125 124 127 117 103 91 82 74 65
139 187 240 253 205 211 176 249 256 208 175 196 202 199 196 204 202 200 191 185 180 174 174 178 175 171 172 170 164 152 151 149 150 152 154 159 161 156 142 138 144 136 126 115 111 107 92 65 54
175 204 223 249 206 181 192 244 262 203 188 206 208 204 200 206 217 210 194 185 180 177 173 172 170 170 172 166 156 144 139 142 145 148 150 157 158 157 144 139 138 134 120 115 124 101 110 97 66
195 196 208 217 211 183 216 244 266 248 202 213 213 211 206 209 219 207 194 183 175 171 166 165 163 164 160 154 141 133 128 142 138 147 154 155 155 156 146 138 136 134 131 133 128 116 93 101 96
179 185 219 227 208 191 227 247 254 248 226 224 221 217 215 221 225 199 186 170 161 161 162 168 166 169 162 162 163 163 175 178 173 164 157 157 156 156 150 151 146 144 155 159 149 131 105 74 71
190 209 234 269 223 207 239 254 254 239 226 220 217 218 217 215 209 200 187 176 175 177 175 175 177 177 177 174 171 169 164 161 167 155 144 160 160 160 161 160 164 160 157 148 147 138 127 91 67
208 203 214 227 306 285 262 272 251 250 232 232 226 219 212 207 207 203 195 194 186 186 185 184 182 180 175 164 145 130 109 97 130 160 179 175 163 163 159 160 159 160 164 168 168 156 149 156 98
222 208 202 206 202 254 200 258 262 240 245 236 233 225 220 216 210 205 198 195 195 196 188 179 177 174 170 164 162 160 165 177 190 184 183 169 151 156 159 157 158 162 166 172 178 168 164 155 161
202 182 185 197 204 258 215 227 275 240 239 239 230 224 223 216 205 202 200 198 194 182 175 172 167 168 168 167 168 167 166 173 165 147 147 155 159 151 153 156 155 165 172 176 174 170 165 165 168
154 105 92 111 160 242 212 199 263 226 218 229 226 222 220 211 203 199 189 175 172 162 159 159 161 169 169 167 169 170 168 164 156 164 171 175 176 178 162 152 157 166 171 178 180 174 168 173 169
156 142 160 191 209 239 192 200 244 237 224 223 227 227 218 202 192 184 173 170 170 166 166 163 164 171 173 170 173 176 177 175 176 179 181 179 182 194 197 172 171 172 175 172 165 169 176 178 176
185 175 179 188 204 237 184 220 249 251 257 245 230 221 204 193 191 188 185 178 175 174 168 164 170 177 175 174 177 177 177 178 181 181 180 184 191 196 184 175 172 172 166 160 155 165 180 176 183
166 195 169 132 134 203 234 273 297 265 312 312 291 217 209 209 199 192 185 178 174 173 175 173 170 174 174 172 167 166 170 171 171 172 173 175 180 173 161 163 163 160 153 154 153 171 182 175 188
164 149 135 159 178 219 250 254 257 280 287 294 272 249 240 218 188 170 168 172 168 166 158 145 154 161 160 161 166 164 166 168 169 165 168 172 171 153 151 151 152 154 154 157 155 162 173 167 187
139 156 157 162 181 178 214 259 247 250 263 259 261 262 232 195 170 152 134 127 119 116 121 122 124 126 131 143 145 147 155 160 160 164 173 173 161 154 161 161 157 160 165 165 159 172 175 168 183
181 178 161 175 204 186 182 265 318 296 298 316 319 344 30 105 94 95 99 91 88 96 103 113 118 122 133 136 133 141 143 142 148 159 169 161 158 154 155 152 153 158 164 169 164 174 180 178 190
Height
1492 1494 1496 1498 1503 1512 1509 1501 1496 1494 1492 1490 1490 1491 1492 1495 1499 1502 1497 1497 1501 1504 1507 1510 1513 1516 1518 1520 1522 1524 1525 1527 1528 1529 1530 1531 1532 1533 1534 1534 1535 1535 1536 1537 1537 1538 1538 1539 1539
1492 1494 1497 1498 1506 1514 1507 1496 1494 1490 1488 1489 1489 1490 1491 1492 1493 1494 1494 1497 1501 1504 1507 1510 1513 1516 1518 1520 1522 1524 1526 1527 1528 1529 1531 1531 1532 1533 1534 1535 1535 1536 1537 1537 1538 1538 1539 1539 1540
1491 1494 1496 1499 1506 1506 1497 1489 1488 1487 1487 1488 1489 1489 1490 1491 1492 1493 1495 1497 1501 1504 1507 1510 1513 1516 1518 1521 1523 1524 1526 1527 1529 1530 1531 1532 1533 1534 1535 1535 1536 1537 1537 1538 1538 1539 1540 1540 1540
1491 1494 1496 1501 1500 1495 1490 1486 1485 1486 1487 1487 1488 1490 1490 1492 1492 1494 1495 1498 1501 1504 1507 1511 1513 1516 1519 1521 1523 1525 1526 1528 1529 1530 1531 1532 1533 1534 1535 1536 1537 1537 1538 1538 1539 1540 1540 1541 1541
1490 1492 1497 1500 1495 1490 1486 1484 1484 1485 1486 1486 1488 1489 1489 1491 1492 1494 1496 1499 1502 1505 1508 1511 1514 1516 1519 1521 1523 1525 1526 1528 1529 1530 1532 1533 1534 1535 1535 1536 1537 1538 1538 1539 1540 1540 1541 1541 1542
1489 1490 1499 1498 1492 1487 1484 1483 1483 1484 1485 1486 1487 1488 1489 1491 1492 1495 1497 1500 1503 1505 1508 1511 1514 1516 1519 1521 1523 1525 1526 1528 1529 1531 1532 1533 1534 1535 1536 1536 1537 1538 1539 1539 1540 1541 1541 1542 1542
1487 1490 1493 1492 1490 1486 1481 1481 1482 1483 1484 1485 1486 1488 1489 1491 1493 1495 1498 1500 1503 1506 1508 1511 1514 1516 1519 1521 1523 1525 1526 1528 1529 1531 1532 1533 1534 1535 1536 1537 1537 1538 1539 1539 1540 1541 1541 1542 1542
1484 1488 1489 1489 1487 1483 1479 1479 1479 1481 1482 1484 1485 1486 1487 1489 1492 1495 1497 1500 1503 1506 1508 1511 1513 1516 1518 1520 1522 1524 1526 1528 1529 1530 1532 1533 1534 1535 1536 1537 1537 1538 1539 1540 1540 1541 1541 1542 1542
1482 1488 1486 1484 1483 1479 1477 1477 1478 1479 1481 1482 1483 1485 1486 1488 1491 1494 1497 1500 1502 1505 1508 1510 1513 1515 1518 1520 1522 1524 1526 1527 1529 1530 1531 1532 1534 1534 1535 1536 1537 1538 1539 1539 1540 1541 1541 1542 1542
1480 1483 1478 1476 1476 1475 1475 1476 1477 1478 1479 1481 1482 1483 1485 1487 1490 1492 1495 1497 1500 1503 1507 1509 1512 1514 1517 1519 1521 1523 1525 1527 1528 1529 1531 1532 1533 1534 1535 1536 1537 1538 1538 1539 1540 1540 1541 1541 1542
1476 1476 1474 1473 1473 1474 1474 1475 1475 1476 1479 1478 1478 1481 1483 1486 1489 1491 1494 1497 1499 1502 1505 1508 1511 1514 1516 1518 1520 1522 1524 1526 1527 1529 1530 1531 1533 1534 1534 1535 1536 1537 1538 1539 1539 1540 1540 1541 1541
1474 1472 1472 1472 1473 1473 1473 1474 1474 1474 1475 1475 1477 1479 1481 1484 1487 1489 1492 1496 1499 1502 1505 1507 1510 1513 1515 1517 1519 1521 1523 1525 1526 1528 1529 1531 1532 1533 1534 1535 1536 1536 1537 1538 1539 1539 1540 1540 1540
1471 1471 1471 1472 1472 1472 1472 1472 1473 1472 1473 1474 1476 1478 1480 1482 1485 1489 1492 1495 1498 1500 1503 1506 1509 1511 1514 1516 1518 1520 1522 1524 1525 1527 1528 1530 1531 1532 1533 1534 1535 1535 1536 1537 1537 1538 1539 1539 1539
1468 1470 1470 1470 1471 1471 1471 1471 1471 1469 1471 1472 1474 1476 1478 1481 1483 1486 1489 1492 1496 1499 1502 1504 1507 1510 1512 1514 1517 1519 1520 1522 1524 1525 1527 1528 1530 1531 1532 1533 1534 1534 1535 1536 1536 1537 1537 1538 1538
1467 1470 1470 1469 1469 1470 1471 1471 1468 1468 1470 1470 1472 1474 1476 1479 1482 1484 1487 1490 1493 1497 1500 1502 1505 1508 1510 1513 1515 1517 1519 1521 1522 1524 1525 1527 1528 1529 1530 1531 1532 1533 1534 1534 1535 1535 1536 1536 1537
1467 1470 1472 1467 1468 1469 1474 1471 1465 1466 1467 1468 1470 1472 1474 1477 1480 1483 1486 1489 1492 1495 1498 1500 1503 1505 1508 1510 1513 1515 1516 1518 1520 1522 1523 1525 1526 1527 1529 1530 1531 1531 1532 1533 1533 1534 1534 1534 1535
1468 1471 1470 1468 1466 1467 1470 1468 1464 1464 1465 1466 1467 1469 1472 1474 1477 1480 1483 1486 1489 1492 1495 1498 1500 1503 1505 1508 1510 1512 1514 1516 1518 1520 1521 1523 1524 1525 1527 1528 1529 1530 1530 1531 1531 1532 1532 1532 1532
1467 1469 1469 1468 1465 1467 1468 1466 1463 1462 1463 1463 1465 1467 1469 1471 1474 1477 1480 1483 1486 1489 1492 1495 1497 1500 1502 1505 1507 1509 1511 1513 1515 1517 1519 1520 1522 1523 1524 1525 1526 1527 1528 1529 1529 1530 1530 1530 1530
1462 1466 1467 1466 1463 1466 1466 1464 1462 1461 1461 1461 1462 1463 1465 1468 1471 1475 1478 1480 1483 1486 1489 1491 1494 1496 1499 1501 1503 1506 1508 1510 1512 1514 1516 1518 1519 1520 1522 1523 1524 1525 1525 1526 1527 1527 1527 1528 1528
1461 1465 1467 1465 1463 1464 1465 1463 1459 1458 1457 1457 1458 1460 1462 1465 1468 1471 1474 1477 1480 1482 1485 1488 1490 1493 1496 1498 1500 1503 1505 1507 1509 1511 1513 1515 1516 1518 1519 1520 1521 1522 1523 1523 1524 1524 1525 1525 1526
1459 1463 1464 1466 1464 1463 1464 1462 1457 1454 1453 1453 1454 1456 1458 1461 1463 1467 1470 1473 1476 1478 1481 1484 1487 1490 1492 1495 1497 1500 1502 1504 1506 1508 1510 1511 1513 1514 1515 1517 1518 1519 1520 1520 1521 1521 1522 1522 1523
1458 1458 1460 1463 1468 1470 1467 1469 1457 1452 1451 1450 1450 1452 1453 1456 1459 1462 1465 1468 1471 1474 1478 1481 1483 1486 1489 1491 1494 1496 1498 1500 1502 1504 1506 1508 1510 1511 1512 1514 1515 1516 1516 1517 1518 1519 1519 1519 1520
1455 1456 1459 1462 1467 1470 1468 1470 1458 1451 1450 1447 1446 1447 1449 1452 1455 1458 1461 1464 1467 1471 1474 1477 1480 1483 1485 1488 1490 1493 1495 1497 1500 1501 1503 1505 1506 1508 1509 1510 1511 1512 1513 1514 1515 1515 1516 1516 1517
1453 1457 1461 1464 1468 1469 1465 1468 1458 1451 1444 1442 1442 1443 1445 1448 1451 1454 1457 1460 1464 1467 1470 1473 1476 1479 1482 1484 1487 1489 1492 1494 1496 1498 1500 1501 1503 1504 1506 1507 1508 1509 1509 1510 1511 1512 1512 1513 1513
1452 1459 1466 1466 1468 1464 1460 1461 1451 1441 1438 1438 1438 1439 1442 1444 1447 1450 1453 1456 1459 1463 1466 1469 1472 1475 1478 1481 1483 1486 1488 1491 1492 1494 1496 1498 1499 1501 1502 1503 1504 1505 1506 1507 1507 1508 1508 1509 1509
1450 1453 1460 1463 1463 1463 1460 1458 1445 1437 1435 1434 1435 1437 1439 1441 1444 1446 1449 1452 1456 1459 1462 1465 1469 1472 1475 1477 1480 1482 1485 1487 1489 1491 1493 1494 1496 1497 1498 1499 1500 1501 1502 1503 1504 1504 1504 1505 1505
1448 1451 1452 1460 1463 1464 1459 1453 1443 1434 1434 1434 1434 1435 1436 1438 1441 1443 1446 1449 1452 1456 1459 1462 1465 1468 1471 1474 1476 1479 1481 1483 1485 1487 1489 1491 1492 1494 1495 1496 1497 1498 1499 1499 1500 1500 1501 1501 1501
1443 1446 1453 1458 1460 1457 1454 1452 1445 1436 1435 1434 1434 1434 1434 1436 1438 1441 1444 1447 1450 1453 1456 1459 1462 1465 1468 1470 1473 1475 1478 1480 1482 1484 1485 1487 1488 1490 1491 1492 1493 1494 1495 1496 1496 1496 1497 1497 1497
1445 1447 1448 1452 1455 1456 1454 1449 1438 1436 1435 1435 1434 1434 1434 1435 1437 1439 1442 1445 1448 1451 1453 1456 1459 1462 1465 1467 1470 1472 1474 1477 1478 1480 1481 1483 1485 1486 1487 1488 1489 1490 1491 1491 1492 1492 1493 1492 1492
1441 1443 1447 1450 1454 1456 1455 1450 1436 1436 1435 1434 1434 1434 1434 1435 1437 1439 1441 1443 1446 1448 1451 1454 1457 1459 1462 1465 1467 1469 1471 1473 1475 1476 1478 1479 1481 1482 1483 1484 1485 1486 1487 1487 1487 1488 1488 1488 1488